Weather in Griffith

Australia     34°17′12″S   146°02′36″E
temp.,
°C
wind,
m/s
gust,
m/s
humid.,
%
clouds,
%
prec.,
mm/h
press.,
hPa
HPBL,
m
13 may, thu
thu1301:00+11ssw11770 0.0 101810
04:00+10ssw00814 0.0 101610
07:00+9w11840 0.0 101710
10:00+16w355367 0.0 1017651
13:00+19w564379 0.0 10141464
16:00+19w68420 0.0 10121668
19:00+13wnw35470 0.0 101467
22:00+15wsw61153100 0.0 1014650
14 may, fri
fri1401:00+11sw612620 0.0 1015616
04:00+8sw412792 0.0 1016486
07:00+6wsw34780 0.0 101858
10:00+13wsw5104618 0.0 10191151
13:00+16wsw794260 0.0 10171906
16:00+15sw794176 0.0 10161908
19:00+11wsw511535 0.0 1019398
22:00+13w41047100 0.0 1019750
15 may, sat
sat1501:00+11wsw612645 0.0 1018498
04:00+9w5137216 0.0 1018358
07:00+9wsw714785 0.0 1020798
10:00+12sw913527 0.0 10211619
13:00+14ssw8113316 0.0 10212147
16:00+13ssw79300 0.0 10211943
19:00+8ssw34440 0.0 102446
22:00+6s22550 0.0 102522
16 may, sun
sun1601:00+5s22620 0.0 102513
04:00+4ssw22680 0.0 102519
07:00+3sw22740 0.0 102713
10:00+11sw36470 0.0 1027751
13:00+14sw56395 0.0 10251578
16:00+14sw56405 0.0 10241612
19:00+8wsw33585 0.0 102638
22:00+8w33630 0.0 102728
17 may, mon
mon1701:00+7wsw227029 0.0 102723
04:00+7w337314 0.0 102632
07:00+6w33750 0.0 102835
10:00+14ssw45523 0.0 1028727
13:00+17sw454110 0.0 10271602
16:00+17ssw454437 0.0 10261635
19:00+14s3552100 0.0 1028122
22:00+14s2452100 0.0 102976